Location: Mainz-Finthen
(49.9906°N, 8.1713°E)
Time: 07:26:49
(UTC+00:00)

Envisat - Pass Details

Date: 29 September 2021
Orbit: 764 x 766 km, 98.2° (Epoch: 22 October)

Event Time Altitude Azimuth Distance (km) Brightness Sun altitude
Rises 03:07:50 0° 30° (NNE) 3,243 7.1 -22.2°
Reaches altitude 10° 03:11:33 10° 58° (ENE) 2,309 6.6 -21.6°
Maximum altitude 03:13:51 13° 85° (E) 2,101 6.2 -21.3°
Drops below altitude 10° 03:16:08 10° 112° (ESE) 2,301 6.1 -21.0°
Sets 03:19:48 0° 140° (SE) 3,220 6.5 -20.4°
